If you wish to contribute or participate in the discussions about articles you are invited to join SKYbrary as a registered user

 Actions

Angel S Adami Airport

From SKYbrary Wiki

SUAA
Airport
ICAO: SUAA
Summary
Name Angel S Adami Airport
Region
Territory Uruguay UY.gif
Location , Montevideo
Serving Montevideo
Elevation 53.035 m <br />174 ft <br />174 ft53.035 m <br />
Type medium airport
Coordinates 34° 47' 21.15" S, 56° 15' 52.93" W
Runways
Designator Length Width Surface ROPS
18/36 1250 m4,101.05 ft <br /> 23 m75.459 ft <br /> CON /


METAR
Observation SUAA 251000Z 34011KT CAVOK 16/07 Q1008
Station Melilla
Date/Time 25 October 2021 10:00:00
Wind direction 340°
Wind speed 11 kts
Lowest cloud amount clouds and visibility OK
Temperature 16°C
Dew point 7°C
Humidity 55%
QNH 1008 hPa
Weather condition n/a